Estación Meteorológica Peña el Pijo (Robertgarden) [ 11/16/19 01:55:32 CET ]

Fecha Hora Presion(HPa) Temp (°C) Humedad % Rocio (°C) Viento ( m/s) Direccion Lluvia 1Hora(mm) Lluvia 24H(mm) LLuvia Total(mm)
2019-Jun-19 01:09:08 1009.300 - - - - WSW     330.48
2019-Jun-19 02:09:03 1009.000 - - - - WSW     330.48
2019-Jun-19 03:09:54 1008.500 - - - - WSW     330.48
2019-Jun-19 04:13:51 1008.400 - - - - WSW     330.48
2019-Jun-19 05:10:58 1008.500 - - - - WSW     330.48
2019-Jun-19 06:09:07 1008.700 - - - - WSW     330.48
2019-Jun-19 07:09:05 1008.800 - - - - WSW     330.48
2019-Jun-19 08:09:07 1008.700 - - - - WSW     330.48
2019-Jun-19 09:09:04 1008.500 - - - - WSW     330.48
2019-Jun-19 10:09:21 1008.300 - - - - WSW     330.48
2019-Jun-19 11:09:39 1008.200 - - - - WSW     330.48
2019-Jun-19 12:09:09 1008.200 - - - - WSW     330.48
2019-Jun-19 13:08:55 1008.100 - - - - WSW     330.48
2019-Jun-19 14:09:04 1007.600 - - - - WSW     330.48
2019-Jun-19 15:09:14 1007.000 - - - - WSW     330.48
2019-Jun-19 16:08:54 1006.900 - - - - WSW     330.48
2019-Jun-19 17:09:12 1006.800 - - - - WSW     330.48
2019-Jun-19 18:09:17 1006.700 - - - - WSW     330.48
2019-Jun-19 19:09:19 1006.800 - - - - WSW     330.48
2019-Jun-19 20:09:08 1007.000 - - - - WSW     330.48
2019-Jun-19 21:09:28 1007.300 - - - - WSW     330.48
2019-Jun-19 22:09:56 1007.800 - - - - WSW     330.48
2019-Jun-19 23:09:19 1008.400 - - - - WSW     330.48

Temperatura Máxima:    Temperatura Mínima:
Presión Máxima:1009.300 Hpa    Presión Mínima:1006.700 Hpa


Volver